N2795J KOPF-KTMB

Flight info

Callsign N2795J
Flight time 0h 22m
Altitude 3000
Route DCT
Aircraft C172/L-VGDW/C

Departure

Time 2026-04-24 15:58
Airport Miami-Opa Locka Executive Airport (KOPF)

Arrival

Time 2026-04-24 16:20
Airport Miami Executive Airport (KTMB)
Time Latitude Longitude Altitude Speed Heading
2026-04-24 15:46 25.90995 -80.27049 9 ft 0 kts 88°
2026-04-24 15:51 25.90995 -80.27043 9 ft 6 kts 91°
2026-04-24 15:51 25.91026 -80.27000 9 ft 11 kts
2026-04-24 15:51 25.91122 -80.27003 9 ft 15 kts
2026-04-24 15:52 25.91216 -80.27030 9 ft 10 kts 281°
2026-04-24 15:52 25.91212 -80.27138 9 ft 14 kts 267°
2026-04-24 15:52 25.91203 -80.27309 9 ft 21 kts 267°
2026-04-24 15:52 25.91194 -80.27522 9 ft 24 kts 269°
2026-04-24 15:53 25.91183 -80.27767 9 ft 24 kts 265°
2026-04-24 15:53 25.91171 -80.27992 9 ft 24 kts 267°
2026-04-24 15:53 25.91163 -80.28191 9 ft 24 kts 266°
2026-04-24 15:53 25.91152 -80.28378 9 ft 24 kts 266°
2026-04-24 15:54 25.91144 -80.28546 9 ft 24 kts 267°
2026-04-24 15:54 25.91136 -80.28724 9 ft 21 kts 267°
2026-04-24 15:54 25.91154 -80.28809 9 ft 0 kts 334°
2026-04-24 15:55 25.91172 -80.28818 9 ft 12 kts 342°
2026-04-24 15:56 25.91266 -80.28822 9 ft 9 kts 30°
2026-04-24 15:56 25.91275 -80.28691 9 ft 39 kts 88°
2026-04-24 15:56 25.91291 -80.28341 109 ft 50 kts 89°
2026-04-24 15:56 25.91311 -80.28020 187 ft 58 kts 84°
2026-04-24 15:57 25.91348 -80.27588 287 ft 64 kts 84°
2026-04-24 15:57 25.91412 -80.27016 438 ft 66 kts 89°
2026-04-24 15:57 25.91440 -80.26702 529 ft 67 kts 87°
2026-04-24 15:58 25.91503 -80.25598 791 ft 72 kts 90°
2026-04-24 15:58 25.91504 -80.25119 938 ft 69 kts 95°
2026-04-24 15:58 25.91478 -80.24716 1098 ft 61 kts 108°
2026-04-24 15:58 25.91232 -80.24423 1190 ft 69 kts 151°
2026-04-24 15:59 25.90798 -80.24453 1322 ft 82 kts 205°
2026-04-24 15:59 25.90417 -80.24748 1576 ft 70 kts 197°
2026-04-24 15:59 25.89641 -80.25089 1786 ft 74 kts 194°
2026-04-24 16:00 25.89251 -80.25259 1930 ft 72 kts 193°
2026-04-24 16:00 25.88806 -80.25465 2031 ft 76 kts 197°
2026-04-24 16:00 25.88396 -80.25639 2170 ft 73 kts 193°
2026-04-24 16:00 25.88077 -80.25760 2280 ft 71 kts 192°
2026-04-24 16:01 25.87703 -80.25909 2402 ft 70 kts 196°
2026-04-24 16:01 25.87212 -80.26118 2544 ft 70 kts 193°
2026-04-24 16:01 25.86828 -80.26273 2637 ft 73 kts 191°
2026-04-24 16:02 25.86071 -80.26530 2848 ft 73 kts 185°
2026-04-24 16:02 25.85674 -80.26662 2983 ft 70 kts 194°
2026-04-24 16:02 25.85279 -80.26826 3061 ft 76 kts 193°
2026-04-24 16:02 25.84827 -80.26997 3065 ft 81 kts 193°
2026-04-24 16:03 25.84372 -80.27155 3072 ft 84 kts 194°
2026-04-24 16:03 25.83862 -80.27335 3067 ft 88 kts 192°
2026-04-24 16:03 25.83216 -80.27563 3083 ft 88 kts 193°
2026-04-24 16:03 25.82696 -80.27740 3103 ft 88 kts 193°
2026-04-24 16:04 25.81648 -80.28054 3141 ft 87 kts 191°
2026-04-24 16:04 25.81077 -80.28239 3139 ft 89 kts 193°
2026-04-24 16:04 25.80511 -80.28437 3119 ft 93 kts 194°
2026-04-24 16:05 25.79318 -80.29016 3049 ft 103 kts 227°
2026-04-24 16:05 25.78974 -80.29816 3090 ft 98 kts 243°
2026-04-24 16:06 25.78402 -80.31464 3037 ft 100 kts 244°
2026-04-24 16:06 25.78089 -80.32270 3028 ft 98 kts 243°
2026-04-24 16:06 25.77392 -80.34083 3087 ft 93 kts 243°
2026-04-24 16:07 25.77124 -80.34804 3129 ft 89 kts 244°
2026-04-24 16:07 25.76813 -80.35622 3004 ft 103 kts 245°
2026-04-24 16:07 25.76156 -80.37336 3013 ft 98 kts 244°
2026-04-24 16:08 25.75810 -80.38223 2960 ft 103 kts 244°
2026-04-24 16:08 25.75306 -80.39593 3087 ft 87 kts 245°
2026-04-24 16:09 25.74856 -80.40882 3061 ft 94 kts 244°
2026-04-24 16:09 25.74620 -80.41551 3094 ft 92 kts 242°
2026-04-24 16:09 25.74369 -80.42217 3098 ft 93 kts 244°
2026-04-24 16:09 25.74119 -80.42879 3086 ft 95 kts 243°
2026-04-24 16:10 25.73371 -80.44965 3077 ft 97 kts 246°
2026-04-24 16:11 25.72839 -80.46351 3085 ft 96 kts 243°
2026-04-24 16:11 25.72590 -80.47050 3067 ft 99 kts 244°
2026-04-24 16:11 25.72326 -80.47783 3006 ft 104 kts 246°
2026-04-24 16:12 25.71826 -80.49194 3081 ft 91 kts 242°
2026-04-24 16:12 25.71581 -80.49844 3083 ft 92 kts 244°
2026-04-24 16:12 25.71019 -80.51219 2949 ft 105 kts 244°
2026-04-24 16:13 25.70754 -80.51965 2933 ft 103 kts 246°
2026-04-24 16:13 25.70212 -80.53516 2655 ft 108 kts 244°
2026-04-24 16:14 25.69190 -80.54446 2418 ft 98 kts 173°
2026-04-24 16:14 25.68520 -80.54397 2319 ft 95 kts 174°
2026-04-24 16:14 25.67164 -80.54312 2050 ft 96 kts 172°
2026-04-24 16:15 25.66727 -80.54270 1984 ft 94 kts 172°
2026-04-24 16:15 25.65253 -80.54075 1773 ft 84 kts 149°
2026-04-24 16:16 25.64607 -80.53001 1571 ft 89 kts 113°
2026-04-24 16:16 25.64383 -80.52374 1510 ft 87 kts 111°
2026-04-24 16:17 25.64024 -80.50420 1140 ft 80 kts 90°
2026-04-24 16:17 25.64082 -80.49250 918 ft 75 kts 93°
2026-04-24 16:18 25.64115 -80.48022 723 ft 78 kts 88°
2026-04-24 16:18 25.64179 -80.46869 512 ft 73 kts 95°
2026-04-24 16:18 25.64186 -80.46320 430 ft 71 kts 91°
2026-04-24 16:19 25.64255 -80.45239 237 ft 72 kts 94°
2026-04-24 16:19 25.64269 -80.44726 161 ft 70 kts 94°
2026-04-24 16:20 25.64329 -80.43210 9 ft 35 kts 88°
2026-04-24 16:20 25.64399 -80.42987 9 ft 16 kts 11°
2026-04-24 16:21 25.64445 -80.42967 9 ft 4 kts 78°
2026-04-24 16:21 25.64450 -80.42902 9 ft 11 kts 85°
2026-04-24 16:21 25.64526 -80.42847 9 ft 16 kts 19°
2026-04-24 16:22 25.64567 -80.42820 9 ft 0 kts 78°